Weather reports worldwide

Advertisment
Dalwhinnie, United Kingdom (99005): temperature & dewpoint: 06.11.2019 05:00:00 - 12.11.2019 05:00:00 (GMT)Dalwhinnie, United Kingdom (99005): precipitation: 06.11.2019 05:00:00 - 12.11.2019 05:00:00 (GMT)
Date & Time tt [°C] td [°C] rr [mm]
12.11.2019 05:00:00 0,7 0,0 2,4
12.11.2019 04:00:00 0,8 -0,1 2,0
12.11.2019 03:00:00 2,5 1,0 0,0
12.11.2019 02:00:00 1,9 1,0 0,0
12.11.2019 01:00:00 1,5 0,8 0,0
12.11.2019 00:00:00 1,4 0,8 0,2
11.11.2019 23:00:00 1,9 1,1 0,0
11.11.2019 22:00:00 1,8 1,1 0,0
11.11.2019 21:00:00 1,6 0,7 0,0
11.11.2019 20:00:00 1,6 0,8 0,4
11.11.2019 19:00:00 1,2 0,6 0,4
11.11.2019 18:00:00 1,0 0,2 0,8
11.11.2019 17:00:00 1,7 0,6 1,0
11.11.2019 16:00:00 2,1 0,6 1,0
11.11.2019 15:00:00 2,5 1,5 0,4
11.11.2019 14:00:00 2,0 1,0 0,0
11.11.2019 13:00:00 1,4 0,7 1,0
11.11.2019 12:00:00 2,4 0,5 0,2
11.11.2019 11:00:00 2,2 0,6 0,0
11.11.2019 10:00:00 1,6 0,5 0,0
11.11.2019 09:00:00 1,3 -0,1 0,0
11.11.2019 08:00:00 1,3 0,0 0,0
11.11.2019 07:00:00 1,4 0,3 0,0
11.11.2019 06:00:00 1,9 -0,2 0,0
11.11.2019 05:00:00 2,0 -0,7 0,0
11.11.2019 04:00:00 1,5 -0,5 0,4
11.11.2019 03:00:00 1,3 -0,4 0,6
11.11.2019 02:00:00 1,0 -0,6 0,4
11.11.2019 01:00:00 1,0 -0,6 0,6
11.11.2019 00:00:00 0,8 -0,4 0,4
10.11.2019 23:00:00 1,0 -0,6 0,4
10.11.2019 22:00:00 1,1 -0,6 0,6
10.11.2019 21:00:00 1,1 -0,8 0,0
10.11.2019 20:00:00 1,3 -1,1 0,0
10.11.2019 19:00:00 1,7 -1,3 0,0
10.11.2019 18:00:00 1,6 -1,4 0,0
10.11.2019 17:00:00 1,7 -2,2 0,0
10.11.2019 16:00:00 2,0 -2,2 0,0
10.11.2019 15:00:00 2,3 -2,3 0,0
10.11.2019 14:00:00 2,5 -0,8 0,0
10.11.2019 13:00:00 1,8 -0,7 0,0
10.11.2019 12:00:00 1,1 -1,1 0,0
10.11.2019 11:00:00 -0,8 -2,2 0,0
10.11.2019 10:00:00 0,0 -1,5 0,0
10.11.2019 09:00:00 -1,9 -2,7 0,0
10.11.2019 08:00:00 -2,9 -3,6 0,0
10.11.2019 07:00:00 -3,0 -4,0 0,0
10.11.2019 06:00:00 -2,1 -3,0 0,0
10.11.2019 05:00:00 -1,4 -2,3 0,0
10.11.2019 04:00:00 -3,1 -3,9 0,0
10.11.2019 03:00:00 -3,4 -4,3 0,0
10.11.2019 02:00:00 -2,6 -3,8 0,0
10.11.2019 01:00:00 -2,7 -3,7 0,0
10.11.2019 00:00:00 -1,8 -2,8 0,0
09.11.2019 23:00:00 0,1 -1,2 0,0
09.11.2019 22:00:00 -0,1 -1,7 0,0
09.11.2019 21:00:00 1,0 -1,1 0,0
09.11.2019 20:00:00 1,1 -1,0 0,0
09.11.2019 19:00:00 1,0 -0,9 0,0
09.11.2019 18:00:00 1,3 -0,7 0,0
09.11.2019 17:00:00 1,7 -1,8 0,0
09.11.2019 16:00:00 2,2 -3,0 0,0
09.11.2019 15:00:00 4,0 -2,0 0,0
09.11.2019 14:00:00 4,6 -2,4 0,0
09.11.2019 13:00:00 3,9 -0,9 0,0
09.11.2019 12:00:00 3,2 -1,1 0,0
09.11.2019 11:00:00 2,3 -1,6 0,0
09.11.2019 10:00:00 1,7 -1,7 0,0
09.11.2019 09:00:00 1,3 -2,8 0,0
09.11.2019 08:00:00 1,3 -2,2 0,0
09.11.2019 07:00:00 1,1 -1,5 0,0
09.11.2019 06:00:00 -0,4 -2,6 0,0
09.11.2019 05:00:00 0,4 -1,7 0,0
09.11.2019 04:00:00 0,7 -1,8 0,0
09.11.2019 03:00:00 0,3 -2,2 0,0
09.11.2019 02:00:00 -0,6 -2,1 0,0
09.11.2019 01:00:00 -1,6 -2,5 0,0
09.11.2019 00:00:00 -2,3 -2,9 0,0
08.11.2019 23:00:00 -3,2 -3,6 0,0
08.11.2019 22:00:00 -2,8 -3,1 0,0
08.11.2019 21:00:00 -2,6 -3,0 0,0
08.11.2019 20:00:00 -2,0 -2,3 0,0
08.11.2019 19:00:00 -3,0 -3,7 0,0
08.11.2019 18:00:00 -2,8 -3,7 0,0
08.11.2019 17:00:00 -1,6 -2,5 0,0
08.11.2019 16:00:00 0,3 -1,7 0,0
08.11.2019 15:00:00 1,0 -1,4 0,0
08.11.2019 14:00:00 2,1 -0,6 0,0
08.11.2019 13:00:00 1,5 -0,6 0,0
08.11.2019 12:00:00 1,2 -0,6 0,0
08.11.2019 11:00:00 1,0 -0,6 0,2
08.11.2019 10:00:00 0,6 -0,9 0,0
08.11.2019 09:00:00 0,1 -1,2 0,0
08.11.2019 08:00:00 -0,3 -1,7 0,0
08.11.2019 07:00:00 -1,0 -2,4 0,0
08.11.2019 06:00:00 -2,2 -3,7 0,0
08.11.2019 05:00:00 -1,9 -3,8 0,0
08.11.2019 04:00:00 -1,2 -3,4 0,0
08.11.2019 03:00:00 0,0 -2,0 0,0
08.11.2019 02:00:00 0,1 -0,9 0,0
08.11.2019 01:00:00 0,2 -1,3 0,0
08.11.2019 00:00:00 0,5 -0,9 0,0
07.11.2019 23:00:00 0,4 -0,5 0,0
07.11.2019 22:00:00 -0,2 -1,2 0,0
07.11.2019 21:00:00 0,6 -0,4 -
07.11.2019 20:00:00 0,7 -0,4 0,0
07.11.2019 19:00:00 1,5 0,0 0,0
07.11.2019 18:00:00 1,2 -0,5 0,0
07.11.2019 17:00:00 2,5 0,1 0,0
07.11.2019 16:00:00 3,3 0,5 0,0
07.11.2019 15:00:00 4,8 1,8 0,0
07.11.2019 14:00:00 4,1 1,7 0,0
07.11.2019 13:00:00 3,5 2,0 0,2
07.11.2019 12:00:00 3,4 2,4 0,2
07.11.2019 11:00:00 3,0 2,1 0,0
07.11.2019 10:00:00 2,5 1,6 0,2
07.11.2019 09:00:00 2,3 1,3 0,0
07.11.2019 08:00:00 2,1 1,0 0,0
07.11.2019 07:00:00 2,0 1,1 0,0
07.11.2019 06:00:00 1,8 1,0 0,0
07.11.2019 05:00:00 1,3 0,6 0,8
07.11.2019 04:00:00 1,3 0,5 0,6
07.11.2019 03:00:00 1,0 0,3 0,6
07.11.2019 02:00:00 1,1 0,4 0,2
07.11.2019 01:00:00 1,5 0,4 0,0
07.11.2019 00:00:00 1,4 0,3 0,0
06.11.2019 23:00:00 1,2 0,3 0,0
06.11.2019 22:00:00 1,0 -0,6 0,0
06.11.2019 21:00:00 1,8 0,0 0,0
06.11.2019 20:00:00 1,9 -0,1 0,0
06.11.2019 19:00:00 1,9 -0,2 0,0
06.11.2019 18:00:00 2,8 -0,4 0,0
06.11.2019 17:00:00 3,6 -1,6 0,0
06.11.2019 16:00:00 3,3 -0,6 0,0
06.11.2019 15:00:00 3,3 -0,3 0,0
06.11.2019 14:00:00 4,0 0,8 0,0
06.11.2019 13:00:00 4,0 0,0 0,0
06.11.2019 12:00:00 3,0 1,5 0,0
06.11.2019 11:00:00 1,7 1,0 0,0
06.11.2019 10:00:00 1,0 0,6 0,0
06.11.2019 09:00:00 0,3 0,0 0,0
06.11.2019 08:00:00 0,2 -0,1 0,0
06.11.2019 07:00:00 0,3 -0,1 0,0
06.11.2019 06:00:00 0,3 0,0 0,0
06.11.2019 05:00:00 0,0 -0,3 0,0

tt = temperature
td = dewpoint
rr = precipitation

Next stations